Pueblo, CO

5:11 AM MST on November 17, 2019 (GMT -0700)
Pueblo Memorial

Weather History for KPUB - October, 2019

Change the Weather History Date:

Monday, October 14, 2019

  Actual Average Record
Temperature  
Mean Temperature 56 °F 52 °F  
Max Temperature 82 °F 70 °F 90 °F (1968)
Min Temperature 30 °F 35 °F 22 °F (2004)
Degree Days  
Heating Degree Days 10 13  
Month to date heating degree days 143  
Since 1 July heating degree days 241  
Cooling Degree Days 0 0  
Month to date cooling degree days 0  
Year to date cooling degree days 894  
Growing Degree Days 6 (Base 50)    
Moisture  
Dew Point 15 °F    
Average Humidity 25    
Maximum Humidity 54    
Minimum Humidity 8    
Precipitation  
Precipitation 0.00 in 0.02 in 0.85 in (1984)
Month to date precipitation 0.34  
Year to date precipitation 11.34  
Snow  
Snow - 0.00 in 3.50 in (1984)
Month to date snowfall 0.3  
Since 1 July snowfall 0.6  
Since 1 September snowfall 0.6  
Snow Depth -    
Sea Level Pressure  
Sea Level Pressure 29.84 in    
Wind  
Wind Speed 4 mph ()    
Max Wind Speed 15 mph    
Max Gust Speed 21 mph    
Visibility 10.0 miles    
Events      
T = Trace of Precipitation, MM = Missing Value Source: Averaged Metar Reports

Daily Weather History Graph

Daily Weather History Graph

Search for Another Location

Airport or City:

Astronomy

Oct. 14, 2019 Rise Set
Actual Time 7:05 AM MDT 6:21 PM MDT
Civil Twilight 6:39 AM MDT 6:48 PM MDT
Nautical Twilight 6:08 AM MDT 7:18 PM MDT
Astronomical Twilight 5:37 AM MDT 7:49 PM MDT
Moon 7:13 PM MDT (10/14) 7:40 AM MDT (10/14)
Length of Visible Light 12h 09m
Length of Day
11h 15m
Full, 99% of the Moon is Illuminated
Oct 14
Full
Oct 21
Last Quarter
Oct 27
New
Nov 4
First Quarter
Nov 12
Full

Hourly Weather History & Observations

Time (MDT) Temp. Windchill Dew Point Humidity Pressure Visibility Wind Dir Wind Speed Gust Speed Precip Events Conditions
12:53 AM 37.0 °F 31.0 °F 12.0 °F 36% 29.88 in 10.0 mi West 8.1 mph - N/A   Clear
1:53 AM 34.0 °F 28.8 °F 10.9 °F 38% 29.88 in 10.0 mi North 5.8 mph - N/A   Clear
2:53 AM 39.0 °F 35.7 °F 14.0 °F 36% 29.86 in 10.0 mi West 4.6 mph - N/A   Clear
3:53 AM 33.1 °F 30.0 °F 12.0 °F 42% 29.86 in 10.0 mi West 3.5 mph - N/A   Clear
4:53 AM 30.9 °F 26.2 °F 12.9 °F 47% 29.88 in 10.0 mi NW 4.6 mph - N/A   Clear
5:53 AM 34.0 °F 31.0 °F 19.0 °F 54% 29.89 in 10.0 mi WSW 3.5 mph - N/A   Clear
6:53 AM 32.0 °F 26.4 °F 16.0 °F 52% 29.93 in 10.0 mi WSW 5.8 mph - N/A   Clear
7:53 AM 35.1 °F 32.2 °F 14.0 °F 42% 29.95 in 10.0 mi East 3.5 mph - N/A   Clear
8:53 AM 44.1 °F - 19.0 °F 37% 29.96 in 10.0 mi Calm Calm - N/A   Clear
9:53 AM 55.0 °F - 16.0 °F 22% 29.91 in 10.0 mi WSW 4.6 mph - N/A   Clear
10:53 AM 66.9 °F - 15.1 °F 14% 29.85 in 10.0 mi West 3.5 mph - N/A   Clear
11:53 AM 73.0 °F - 16.0 °F 11% 29.82 in 10.0 mi South 3.5 mph - N/A   Clear
12:53 PM 77.0 °F - 15.1 °F 10% 29.79 in 10.0 mi East 5.8 mph - N/A   Clear
1:53 PM 79.0 °F - 16.0 °F 9% 29.76 in 10.0 mi Variable 3.5 mph - N/A   Clear
2:53 PM 81.0 °F - 15.1 °F 8% 29.73 in 10.0 mi NW 8.1 mph - N/A   Clear
3:53 PM 80.1 °F - 14.0 °F 8% 29.74 in 10.0 mi Calm Calm - N/A   Clear
4:53 PM 79.0 °F - 14.0 °F 9% 29.74 in 10.0 mi SSW 6.9 mph - N/A   Clear
5:53 PM 75.0 °F - 16.0 °F 11% 29.75 in 10.0 mi South 3.5 mph - N/A   Clear
6:53 PM 66.0 °F - 15.1 °F 14% 29.79 in 10.0 mi Calm Calm - N/A   Clear
7:53 PM 55.9 °F - 14.0 °F 19% 29.83 in 10.0 mi NNE 3.5 mph - N/A   Clear
8:53 PM 63.0 °F - 16.0 °F 16% 29.83 in 10.0 mi NW 4.6 mph 20.7 mph N/A   Clear
9:53 PM 59.0 °F - 15.1 °F 18% 29.83 in 10.0 mi WSW 4.6 mph - N/A   Clear
10:53 PM 59.0 °F - 16.0 °F 19% 29.82 in 10.0 mi NNW 10.4 mph - N/A   Clear
11:53 PM 55.9 °F - 12.9 °F 18% 29.83 in 10.0 mi North 15.0 mph - N/A   Clear